WB9TLH-11 Weather Reports


time (UTC)temp
C
wind
direction
speed
KPH
gust
KPH
rain 1hr
cm
rain 24hr
cm
rain mn
cm
humidity
%
barometer
mb
20260906091250 22 121 0.0 1.6 0.00 0.03 0.00 84 1012.6
20260906091228 22 121 0.0 1.6 0.00 0.03 0.00 84 1012.7
20260906090750 22 121 0.0 1.6 0.00 0.03 0.00 84 1012.6
20260906090250 22 121 0.0 6.4 0.00 0.03 0.00 84 1012.6
20260906085750 22 105 0.0 4.8 0.00 0.03 0.00 85 1012.6
20260906085228 22 86 0.0 4.8 0.00 0.03 0.00 85 1012.5
20260906084750 22 84 0.0 3.2 0.00 0.03 0.00 85 1012.5
20260906084228 22 104 0.0 8.0 0.00 0.03 0.00 85 1012.4
20260906083750 22 82 0.0 4.8 0.00 0.03 0.00 85 1012.4
20260906083229 22 82 0.0 3.2 0.00 0.03 0.00 85 1012.4
20260906082750 22 82 0.0 3.2 0.00 0.03 0.00 85 1012.4
20260906082250 22 82 0.0 3.2 0.00 0.03 0.00 85 1012.3
20260906082228 22 82 0.0 4.8 0.00 0.03 0.00 85 1012.3
20260906081750 22 336 0.0 4.8 0.00 0.03 0.00 85 1012.2
20260906081250 22 90 0.0 1.6 0.00 0.03 0.00 84 1012.2
20260906080750 22 90 0.0 1.6 0.00 0.03 0.00 84 1012.2
20260906080227 22 90 0.0 0.0 0.00 0.03 0.00 84 1012.3
20260906075750 22 90 0.0 8.0 0.00 0.03 0.00 84 1012.2
20260906075250 22 75 0.0 8.0 0.00 0.03 0.00 83 1012.2
20260906075228 22 38 0.0 3.2 0.00 0.03 0.00 83 1012.2
20260906074750 22 113 0.0 1.6 0.00 0.03 0.00 83 1012.3
20260906074250 23 113 1.6 4.8 0.00 0.03 0.00 82 1012.2
20260906073750 23 5 1.6 4.8 0.00 0.03 0.00 82 1012.2
20260906073250 23 14 0.0 4.8 0.00 0.03 0.00 82 1012.2
20260906073227 23 50 0.0 4.8 0.00 0.03 0.00 82 1012.2
20260906072750 23 22 0.0 1.6 0.00 0.03 0.00 82 1012.3
20260906072250 23 22 0.0 3.2 0.00 0.03 0.00 81 1012.3
20260906072227 23 22 0.0 3.2 0.00 0.03 0.00 81 1012.4
20260906071750 23 343 0.0 4.8 0.00 0.03 0.00 81 1012.4
20260906071250 23 57 0.0 3.2 0.00 0.03 0.00 81 1012.4
20260906070750 23 338 0.0 6.4 0.00 0.03 0.00 80 1012.5
20260906070229 23 65 0.0 6.4 0.00 0.03 0.00 80 1012.5
20260906065750 23 123 0.0 6.4 0.00 0.03 0.00 80 1012.4
20260906065228 23 120 0.0 4.8 0.00 0.03 0.00 80 1012.4
20260906064750 23 49 0.0 4.8 0.00 0.03 0.00 79 1012.5
20260906064228 23 46 0.0 3.2 0.00 0.03 0.00 78 1012.4
20260906063750 23 52 0.0 1.6 0.00 0.03 0.00 78 1012.5
20260906063250 23 53 0.0 1.6 0.00 0.03 0.00 78 1012.5
20260906062750 23 53 0.0 3.2 0.00 0.03 0.00 78 1012.5
20260906062250 23 5 0.0 0.0 0.00 0.03 0.00 78 1012.6
20260906062228 23 5 0.0 0.0 0.00 0.03 0.00 78 1012.5
20260906061750 23 67 0.0 4.8 0.00 0.03 0.00 78 1012.6
20260906061250 23 67 0.0 1.6 0.00 0.03 0.00 78 1012.6
20260906061228 23 67 0.0 1.6 0.00 0.03 0.00 78 1012.5
20260906060750 23 67 0.0 3.2 0.00 0.03 0.00 77 1012.6
20260906060250 23 92 0.0 4.8 0.00 0.03 0.00 77 1012.6
20260906060230 23 92 0.0 4.8 0.00 0.03 0.00 77 1012.6
20260906055750 24 57 0.0 4.8 0.00 0.03 0.00 77 1012.5
20260906055250 24 57 0.0 3.2 0.00 0.03 0.00 77 1012.5
20260906055228 24 62 0.0 3.2 0.00 0.03 0.00 77 1012.5
20260906054750 24 62 0.0 3.2 0.00 0.03 0.00 77 1012.5
20260906054250 24 62 0.0 1.6 0.00 0.03 0.00 77 1012.4
20260906054228 24 62 0.0 3.2 0.00 0.03 0.00 77 1012.4
20260906053750 24 62 0.0 3.2 0.00 0.03 0.00 77 1012.3
20260906053250 24 62 0.0 0.0 0.00 0.03 0.00 76 1012.4
20260906052750 24 62 0.0 1.6 0.00 0.03 0.00 76 1012.5
20260906052250 25 62 0.0 0.0 0.00 0.03 0.00 75 1012.6
20260906052228 25 62 0.0 0.0 0.00 0.03 0.00 75 1012.6
20260906051750 25 62 0.0 0.0 0.00 0.03 0.00 75 1012.6
20260906051250 25 62 0.0 0.0 0.00 0.03 0.00 75 1012.5
20260906051229 25 62 0.0 0.0 0.00 0.03 0.00 75 1012.5
20260906050750 25 62 0.0 0.0 0.00 0.03 0.00 75 1012.4
20260906050250 25 62 0.0 0.0 0.00 0.03 0.00 75 1012.3
20260906050228 25 62 0.0 0.0 0.00 0.03 0.00 75 1012.3
20260906045750 25 62 0.0 0.0 0.00 0.03 0.00 74 1012.3
20260906045250 25 62 0.0 0.0 0.00 0.03 0.00 74 1012.2
20260906045228 25 62 0.0 0.0 0.00 0.03 0.00 74 1012.2
20260906044750 25 62 0.0 0.0 0.00 0.03 0.00 74 1012.1
20260906044250 25 62 0.0 0.0 0.00 0.03 0.00 73 1012.0
20260906044229 25 62 0.0 0.0 0.00 0.03 0.00 73 1012.0
20260906043750 25 62 0.0 0.0 0.00 0.03 0.00 73 1011.9
20260906043250 25 62 0.0 1.6 0.00 0.03 0.00 72 1011.9
20260906042750 25 62 0.0 1.6 0.00 0.03 0.00 72 1011.9
20260906042250 26 62 0.0 0.0 0.00 0.03 0.00 72 1011.9
20260906042228 26 62 0.0 0.0 0.00 0.03 0.00 72 1011.9
20260906041750 26 62 0.0 0.0 0.00 0.03 0.00 72 1011.9
20260906041250 26 62 0.0 1.6 0.00 0.03 0.00 71 1011.8
20260906041229 26 62 0.0 1.6 0.00 0.03 0.00 71 1011.8
20260906040750 26 62 0.0 0.0 0.00 0.03 0.00 71 1011.8
20260906040250 26 62 0.0 1.6 0.00 0.03 0.00 71 1011.9
20260906035750 26 86 0.0 4.8 0.00 0.03 0.00 71 1011.8
20260906035250 26 86 0.0 3.2 0.00 0.03 0.03 71 1011.8
20260906035228 26 86 0.0 3.2 0.00 0.03 0.03 71 1011.8
20260906034750 26 84 0.0 3.2 0.00 0.03 0.03 71 1011.8
20260906034250 26 83 0.0 0.0 0.00 0.03 0.03 72 1011.9
20260906033750 26 83 0.0 1.6 0.00 0.03 0.03 71 1011.9
20260906033250 26 83 0.0 8.0 0.00 0.03 0.03 71 1011.8
20260906032751 26 83 0.0 8.0 0.00 0.03 0.03 71 1011.9
20260906032250 26 82 0.0 0.0 0.00 0.03 0.03 71 1011.8
20260906031750 26 82 0.0 3.2 0.00 0.03 0.03 71 1011.8
20260906031251 26 82 0.0 3.2 0.00 0.03 0.03 71 1011.7
20260906031228 27 82 0.0 3.2 0.00 0.03 0.03 71 1011.7
20260906030751 27 82 0.0 0.0 0.00 0.03 0.03 70 1011.6
20260906030251 27 82 0.0 0.0 0.00 0.03 0.03 70 1011.6
20260906030228 27 82 0.0 0.0 0.00 0.03 0.03 70 1011.6
20260906025751 27 82 0.0 0.0 0.00 0.03 0.03 70 1011.6
20260906025251 27 82 0.0 0.0 0.00 0.03 0.03 70 1011.6
20260906024751 27 82 0.0 0.0 0.00 0.03 0.03 70 1011.5
20260906024251 27 82 0.0 0.0 0.00 0.03 0.03 70 1011.5
20260906024228 27 82 0.0 0.0 0.00 0.03 0.03 70 1011.5
20260906023751 27 82 0.0 1.6 0.00 0.03 0.03 70 1011.5
20260906023251 27 82 0.0 0.0 0.00 0.03 0.03 70 1011.4
20260906023228 27 82 0.0 0.0 0.00 0.03 0.03 70 1011.4
20260906022751 27 82 0.0 0.0 0.00 0.03 0.03 70 1011.4
20260906022251 27 82 0.0 0.0 0.00 0.03 0.03 70 1011.3
20260906021751 27 82 0.0 3.2 0.00 0.03 0.03 70 1011.2
20260906021251 27 82 0.0 1.6 0.00 0.03 0.03 70 1011.1
20260906020751 27 82 0.0 4.8 0.00 0.03 0.03 71 1011.2
20260906020251 27 82 0.0 0.0 0.00 0.03 0.03 72 1011.1
20260906015751 27 82 0.0 0.0 0.00 0.03 0.03 72 1011.1
20260906015251 27 82 0.0 0.0 0.00 0.03 0.03 74 1011.1
20260906014751 27 82 0.0 0.0 0.00 0.03 0.03 74 1011.1
20260906014251 27 82 0.0 0.0 0.00 0.03 0.03 74 1010.9
20260906014228 27 82 0.0 0.0 0.00 0.03 0.03 74 1010.9
20260906013751 27 82 0.0 0.0 0.00 0.03 0.03 73 1010.8
20260906013251 27 82 0.0 0.0 0.00 0.03 0.03 73 1010.7
20260906013228 27 82 0.0 0.0 0.00 0.03 0.03 73 1010.7
20260906012751 27 82 0.0 0.0 0.00 0.03 0.03 72 1010.5
20260906012251 28 82 0.0 0.0 0.00 0.03 0.03 71 1010.4
20260906012228 28 82 0.0 0.0 0.00 0.03 0.03 71 1010.4
20260906011751 28 82 0.0 0.0 0.00 0.03 0.03 71 1010.4
20260906011251 28 82 0.0 0.0 0.00 0.03 0.03 71 1010.4
20260906010751 28 82 0.0 0.0 0.00 0.03 0.03 71 1010.3
20260906010251 28 82 0.0 0.0 0.00 0.03 0.03 71 1010.2
20260906005751 28 82 0.0 0.0 0.00 0.03 0.03 70 1010.1
20260906005251 28 82 0.0 0.0 0.00 0.03 0.03 70 1010.1
20260906004751 28 82 0.0 0.0 0.00 0.03 0.03 68 1010.1
20260906004251 29 82 0.0 0.0 0.00 0.03 0.03 69 1010.1
20260906003751 29 82 0.0 0.0 0.00 0.03 0.03 67 1010.3
20260906003251 29 82 0.0 0.0 0.00 0.03 0.03 66 1010.3
20260906003228 29 82 0.0 0.0 0.00 0.03 0.03 66 1010.3
20260906002751 29 82 0.0 0.0 0.00 0.03 0.03 66 1010.4
20260906002251 30 82 0.0 0.0 0.00 0.03 0.03 65 1010.4
20260906001751 30 82 0.0 0.0 0.00 0.03 0.03 65 1010.4
20260906001251 30 82 0.0 0.0 0.00 0.03 0.03 64 1010.5
20260906001228 30 82 0.0 0.0 0.00 0.03 0.03 64 1010.5
20260906000751 30 82 0.0 0.0 0.00 0.03 0.03 63 1010.5
20260906000251 30 82 0.0 0.0 0.00 0.03 0.03 63 1010.5
20260906000229 30 82 0.0 0.0 0.00 0.03 0.03 63 1010.5
20260905235751 30 82 0.0 0.0 0.00 0.03 0.03 63 1010.5
20260905235251 30 82 0.0 0.0 0.00 0.03 0.03 63 1010.6
20260905235231 30 82 0.0 0.0 0.00 0.03 0.03 63 1010.5
20260905234751 31 82 0.0 0.0 0.00 0.03 0.03 62 1010.6
20260905234251 31 82 0.0 0.0 0.00 0.03 0.03 62 1010.6
20260905233751 31 82 0.0 0.0 0.00 0.03 0.03 61 1010.5
20260905233251 31 82 0.0 0.0 0.00 0.03 0.03 61 1010.5
20260905233228 31 82 0.0 0.0 0.00 0.03 0.03 61 1010.5
20260905232751 31 82 0.0 0.0 0.00 0.03 0.03 60 1010.5
20260905232251 31 82 0.0 0.0 0.00 0.03 0.03 60 1010.5
20260905231751 31 82 0.0 0.0 0.00 0.03 0.03 60 1010.6
20260905231251 31 82 0.0 0.0 0.00 0.03 0.03 59 1010.4
20260905231231 31 82 0.0 0.0 0.00 0.03 0.03 59 1010.4
20260905230751 31 82 0.0 0.0 0.00 0.03 0.03 59 1010.3
20260905230251 31 82 0.0 0.0 0.00 0.03 0.03 59 1010.3
20260905230228 31 82 0.0 0.0 0.00 0.03 0.03 59 1010.3
20260905225751 31 82 0.0 0.0 0.00 0.03 0.03 59 1010.2
20260905225251 32 82 0.0 0.0 0.00 0.03 0.03 58 1010.2
20260905225229 32 82 0.0 0.0 0.00 0.03 0.03 58 1010.2
20260905224751 32 82 0.0 0.0 0.00 0.03 0.03 58 1010.3
20260905224251 32 82 0.0 0.0 0.00 0.03 0.03 58 1010.3
20260905224229 32 82 0.0 0.0 0.00 0.03 0.03 58 1010.4
20260905223751 32 82 0.0 0.0 0.00 0.03 0.03 57 1010.3
20260905223251 32 82 0.0 1.6 0.00 0.03 0.03 57 1010.1
20260905223229 32 82 0.0 1.6 0.00 0.03 0.03 57 1010.1
20260905222751 32 82 0.0 0.0 0.00 0.03 0.03 57 1010.2
20260905222251 32 82 0.0 0.0 0.00 0.03 0.03 57 1010.1
20260905222229 32 82 0.0 0.0 0.00 0.03 0.03 57 1010.1
20260905221751 32 82 0.0 1.6 0.00 0.03 0.03 56 1010.1
20260905221251 32 82 0.0 3.2 0.00 0.03 0.03 56 1010.1
20260905220751 32 82 0.0 0.0 0.00 0.03 0.03 56 1010.0
20260905220251 32 82 0.0 0.0 0.00 0.03 0.03 56 1009.9
20260905215751 32 82 0.0 0.0 0.00 0.03 0.03 55 1009.8
20260905215251 32 82 0.0 1.6 0.00 0.03 0.03 55 1010.0
20260905215229 32 82 0.0 1.6 0.00 0.03 0.03 55 1010.0
20260905214751 32 82 0.0 0.0 0.00 0.03 0.03 55 1010.1
20260905214251 32 82 0.0 1.6 0.00 0.03 0.03 55 1010.1
20260905213751 32 82 0.0 0.0 0.00 0.03 0.03 55 1010.1
20260905213251 32 82 0.0 4.8 0.00 0.03 0.03 55 1010.2
20260905213230 32 82 0.0 4.8 0.00 0.03 0.03 55 1010.2
20260905212752 32 347 0.0 1.6 0.00 0.03 0.03 53 1010.2
20260905212251 32 347 0.0 1.6 0.00 0.03 0.03 55 1010.2
20260905212229 32 347 0.0 1.6 0.00 0.03 0.03 55 1010.2
20260905211751 32 347 0.0 0.0 0.00 0.03 0.03 55 1010.2
20260905211251 32 347 0.0 0.0 0.00 0.03 0.03 54 1010.1
20260905211229 32 347 0.0 0.0 0.00 0.03 0.03 54 1010.1
20260905210751 32 347 0.0 0.0 0.00 0.03 0.03 54 1010.1
20260905210251 32 347 0.0 1.6 0.00 0.03 0.03 53 1010.2
20260905205751 32 343 0.0 1.6 0.00 0.03 0.03 53 1010.4
20260905205251 33 343 0.0 3.2 0.00 0.03 0.03 53 1010.4
20260905205229 33 343 0.0 3.2 0.00 0.03 0.03 53 1010.4
20260905204751 33 343 0.0 3.2 0.00 0.03 0.03 52 1010.5
20260905204251 33 343 0.0 0.0 0.00 0.03 0.03 51 1010.5
20260905204229 33 343 0.0 0.0 0.00 0.03 0.03 51 1010.6
20260905203751 33 343 1.6 4.8 0.00 0.03 0.03 51 1010.7
20260905203251 33 338 1.6 3.2 0.00 0.03 0.03 51 1010.7
20260905202751 33 338 0.0 4.8 0.00 0.03 0.03 49 1010.8
20260905202251 33 338 0.0 4.8 0.00 0.03 0.03 50 1010.9
20260905202229 33 338 0.0 3.2 0.00 0.03 0.03 50 1010.9
20260905201751 33 338 0.0 1.6 0.00 0.03 0.03 52 1010.9
20260905201251 33 338 0.0 1.6 0.00 0.03 0.03 50 1010.9
20260905200751 33 338 0.0 0.0 0.00 0.03 0.03 49 1010.9
20260905200251 33 338 0.0 0.0 0.00 0.03 0.03 51 1011.0
20260905195751 33 338 0.0 3.2 0.00 0.03 0.03 50 1011.0
20260905195251 33 338 0.0 3.2 0.00 0.03 0.03 49 1010.9
20260905194751 33 338 0.0 3.2 0.00 0.03 0.03 48 1010.9
20260905194251 33 338 0.0 0.0 0.00 0.03 0.03 49 1011.0
20260905194230 33 338 0.0 0.0 0.00 0.03 0.03 49 1011.0
20260905193751 33 338 0.0 1.6 0.00 0.03 0.03 50 1011.1
20260905193251 33 338 0.0 4.8 0.00 0.03 0.03 48 1011.2
20260905193229 33 338 0.0 4.8 0.00 0.03 0.03 48 1011.2
20260905192752 34 346 0.0 4.8 0.00 0.03 0.03 48 1011.1
20260905192251 34 128 0.0 0.0 0.00 0.03 0.03 49 1011.2
20260905192229 34 128 0.0 0.0 0.00 0.03 0.03 49 1011.2
20260905191751 33 128 0.0 3.2 0.00 0.03 0.03 48 1011.3
20260905191251 33 128 0.0 3.2 0.00 0.03 0.03 49 1011.4
20260905190751 33 128 0.0 3.2 0.00 0.03 0.03 49 1011.5
20260905190251 33 128 0.0 3.2 0.00 0.03 0.03 49 1011.6
20260905185751 33 128 0.0 3.2 0.00 0.03 0.03 48 1011.6
20260905185251 33 128 0.0 4.8 0.00 0.03 0.03 49 1011.7
20260905185229 33 128 0.0 4.8 0.00 0.03 0.03 49 1011.7
20260905184752 33 128 0.0 3.2 0.00 0.03 0.03 49 1011.8
20260905184252 33 128 0.0 1.6 0.00 0.03 0.03 50 1011.8
20260905184229 33 128 0.0 1.6 0.00 0.03 0.03 50 1011.9
20260905183752 33 128 0.0 4.8 0.00 0.03 0.03 49 1011.9
20260905183252 33 128 0.0 1.6 0.00 0.03 0.03 49 1012.1
20260905182751 34 128 1.6 1.6 0.00 0.03 0.03 47 1012.2
20260905182252 34 128 1.6 4.8 0.00 0.03 0.03 47 1012.2
20260905182230 34 128 1.6 4.8 0.00 0.03 0.03 47 1012.2
20260905181752 34 128 1.6 4.8 0.00 0.03 0.03 48 1012.2
20260905181252 34 128 1.6 8.0 0.00 0.03 0.03 50 1012.3
20260905181229 34 128 1.6 8.0 0.00 0.03 0.03 50 1012.2
20260905180752 33 113 1.6 8.0 0.00 0.03 0.03 50 1012.3
20260905180252 33 109 1.6 9.7 0.00 0.03 0.03 49 1012.3
20260905180229 33 109 1.6 9.7 0.00 0.03 0.03 49 1012.3
20260905175752 33 157 1.6 4.8 0.00 0.03 0.03 50 1012.3
20260905175252 33 157 1.6 6.4 0.00 0.03 0.03 49 1012.3
20260905175229 33 157 1.6 6.4 0.00 0.03 0.03 49 1012.3
20260905174752 33 157 1.6 4.8 0.00 0.03 0.03 50 1012.3
20260905174252 33 157 1.6 6.4 0.00 0.03 0.03 49 1012.4
20260905174229 33 157 1.6 6.4 0.00 0.03 0.03 49 1012.5
20260905173752 33 157 3.2 6.4 0.00 0.03 0.03 48 1012.4
20260905173252 33 157 3.2 8.0 0.00 0.03 0.03 48 1012.5
20260905173229 33 157 3.2 9.7 0.00 0.03 0.03 49 1012.5
20260905172752 32 157 1.6 9.7 0.00 0.03 0.03 49 1012.6
20260905172252 32 157 3.2 4.8 0.00 0.03 0.03 50 1012.6
20260905172229 32 157 3.2 4.8 0.00 0.03 0.03 50 1012.6
20260905171752 32 157 3.2 9.7 0.00 0.03 0.03 48 1012.6
20260905171252 32 147 3.2 6.4 0.00 0.03 0.03 51 1012.6
20260905171229 32 147 3.2 6.4 0.00 0.03 0.03 51 1012.6
20260905170752 32 148 3.2 8.0 0.00 0.03 0.03 51 1012.7
20260905170252 31 80 1.6 9.7 0.00 0.03 0.03 52 1013.0
20260905170230 31 80 1.6 9.7 0.00 0.03 0.03 52 1013.0
20260905165752 31 155 1.6 4.8 0.00 0.03 0.03 51 1013.1
20260905165252 31 155 1.6 8.0 0.00 0.03 0.03 53 1013.2
20260905164752 31 155 1.6 6.4 0.00 0.03 0.03 54 1013.4
20260905164252 31 155 4.8 9.7 0.00 0.03 0.03 53 1013.3
20260905163752 31 157 4.8 12.9 0.00 0.03 0.03 53 1013.3
20260905163252 31 157 3.2 12.9 0.00 0.03 0.03 53 1013.3
20260905163229 31 157 3.2 12.9 0.00 0.03 0.03 53 1013.3
20260905162752 31 160 3.2 8.0 0.00 0.03 0.03 54 1013.2
20260905162252 30 144 3.2 4.8 0.00 0.03 0.03 54 1013.1
20260905162229 30 144 3.2 6.4 0.00 0.03 0.03 54 1013.2
20260905161752 30 145 4.8 8.0 0.00 0.03 0.03 54 1013.2
20260905161252 30 159 4.8 14.5 0.00 0.03 0.03 57 1013.1
20260905161230 30 159 4.8 14.5 0.00 0.03 0.03 55 1013.1
20260905160752 30 161 4.8 12.9 0.00 0.03 0.03 54 1013.2
20260905160252 30 149 4.8 9.7 0.00 0.03 0.03 55 1013.1
20260905160229 30 163 4.8 9.7 0.00 0.03 0.03 55 1013.1
20260905155752 30 92 3.2 9.7 0.00 0.03 0.03 55 1013.3
20260905155252 30 161 4.8 9.7 0.00 0.03 0.03 55 1013.4
20260905155229 29 161 3.2 9.7 0.00 0.03 0.03 55 1013.4
20260905154752 29 165 3.2 11.3 0.00 0.03 0.03 55 1013.6
20260905154252 29 119 3.2 4.8 0.00 0.03 0.03 56 1013.6
20260905153752 28 111 3.2 9.7 0.00 0.03 0.03 57 1013.6
20260905153252 28 150 4.8 9.7 0.00 0.03 0.03 58 1013.6
20260905152752 28 148 6.4 11.3 0.00 0.03 0.03 58 1013.6
20260905152252 28 153 6.4 17.7 0.00 0.03 0.03 60 1013.6
20260905152229 28 153 6.4 17.7 0.00 0.03 0.03 60 1013.6
20260905151752 27 99 4.8 11.3 0.00 0.03 0.03 62 1013.6
20260905151252 27 83 4.8 12.9 0.00 0.03 0.03 61 1013.5
20260905151229 27 83 4.8 12.9 0.00 0.03 0.03 63 1013.5
20260905150752 27 74 6.4 11.3 0.00 0.03 0.03 62 1013.5
20260905150252 27 86 4.8 12.9 0.00 0.03 0.03 62 1013.5
20260905150230 27 69 4.8 11.3 0.00 0.03 0.03 62 1013.5
20260905145752 27 102 6.4 14.5 0.00 0.03 0.03 63 1013.6
20260905145252 27 101 6.4 12.9 0.00 0.03 0.03 62 1013.7
20260905145231 27 101 6.4 12.9 0.00 0.03 0.03 62 1013.7
20260905144752 27 137 6.4 16.1 0.00 0.03 0.03 62 1013.8
20260905144252 27 99 4.8 11.3 0.00 0.03 0.03 63 1013.9
20260905144231 27 115 4.8 11.3 0.00 0.03 0.03 64 1013.9
20260905143752 27 162 6.4 12.9 0.00 0.03 0.03 65 1013.8
20260905143252 26 82 6.4 16.1 0.00 0.03 0.03 65 1013.8
20260905143232 26 123 8.0 12.9 0.00 0.03 0.03 65 1013.8
20260905142752 26 85 8.0 12.9 0.00 0.03 0.03 67 1013.8
20260905142252 26 157 8.0 19.3 0.00 0.03 0.03 67 1013.7
20260905142233 26 157 8.0 19.3 0.00 0.03 0.03 67 1013.8
20260905141752 26 160 6.4 12.9 0.00 0.03 0.03 69 1013.7
20260905141252 26 78 4.8 14.5 0.00 0.03 0.03 68 1013.8
20260905141231 26 78 4.8 14.5 0.00 0.03 0.03 68 1013.9
20260905140752 26 90 4.8 14.5 0.00 0.03 0.03 69 1013.8
20260905140252 26 90 4.8 14.5 0.00 0.03 0.03 69 1013.8
20260905140232 26 120 4.8 14.5 0.00 0.03 0.03 69 1013.8
20260905135752 26 120 4.8 12.9 0.00 0.03 0.03 71 1013.8
20260905135252 26 78 4.8 14.5 0.00 0.03 0.03 71 1013.9
20260905135230 26 102 4.8 14.5 0.00 0.03 0.03 71 1013.9
20260905134752 26 88 4.8 12.9 0.00 0.03 0.03 72 1013.9
20260905134252 25 94 4.8 14.5 0.03 0.03 0.03 74 1014.0
20260905133752 25 71 6.4 16.1 0.03 0.03 0.03 74 1014.0
20260905133252 25 79 4.8 14.5 0.03 0.03 0.03 75 1013.8
20260905132752 25 77 4.8 14.5 0.03 0.03 0.03 76 1013.9
20260905132252 25 115 4.8 8.0 0.03 0.03 0.03 77 1013.8
20260905132230 25 115 4.8 12.9 0.03 0.03 0.03 77 1013.8
20260905131752 25 103 4.8 14.5 0.03 0.03 0.03 77 1013.8
20260905131252 24 48 4.8 12.9 0.03 0.03 0.03 78 1013.8
20260905131230 24 95 4.8 12.9 0.03 0.03 0.03 78 1013.8
20260905130752 24 105 3.2 14.5 0.03 0.03 0.03 79 1014.0
20260905130252 24 109 1.6 11.3 0.03 0.03 0.03 79 1013.9
20260905130230 24 109 1.6 11.3 0.03 0.03 0.03 79 1013.9
20260905125752 24 89 1.6 11.3 0.03 0.03 0.03 77 1013.8
20260905125252 25 89 1.6 11.3 0.03 0.03 0.03 76 1013.8
20260905125230 25 87 1.6 8.0 0.03 0.03 0.03 76 1013.7
20260905124752 25 127 1.6 4.8 0.03 0.03 0.03 74 1013.8
20260905124252 26 107 3.2 6.4 0.00 0.00 0.00 72 1013.7
20260905123752 26 350 1.6 14.5 0.00 0.00 0.00 70 1013.6
20260905123252 26 355 0.0 0.0 0.00 0.00 0.00 67 1013.3
20260905122752 26 355 0.0 0.0 0.00 0.00 0.00 66 1012.9
20260905122252 26 355 0.0 0.0 0.00 0.00 0.00 67 1012.8
20260905122231 26 355 0.0 0.0 0.00 0.00 0.00 66 1012.8
20260905121752 26 355 0.0 0.0 0.00 0.00 0.00 67 1012.8
20260905121252 26 355 0.0 0.0 0.00 0.00 0.00 66 1012.9
20260905120752 26 355 0.0 0.0 0.00 0.00 0.00 66 1012.8
20260905120252 26 355 0.0 0.0 0.00 0.00 0.00 66 1012.8
20260905120230 26 355 0.0 0.0 0.00 0.00 0.00 66 1012.8
20260905115752 26 355 0.0 0.0 0.00 0.00 0.00 66 1012.6
20260905115252 26 355 0.0 0.0 0.00 0.00 0.00 66 1012.6
20260905115230 26 355 0.0 0.0 0.00 0.00 0.00 67 1012.6
20260905114753 26 355 0.0 0.0 0.00 0.00 0.00 67 1012.6
20260905114252 26 355 0.0 1.6 0.00 0.00 0.00 67 1012.6
20260905113752 26 355 0.0 0.0 0.00 0.00 0.00 67 1012.6
20260905113252 26 355 0.0 0.0 0.00 0.00 0.00 67 1012.5
20260905112752 26 355 0.0 1.6 0.00 0.00 0.00 68 1012.5
20260905112252 26 355 0.0 0.0 0.00 0.00 0.00 68 1012.3
20260905111752 26 355 0.0 3.2 0.00 0.00 0.00 68 1012.2
20260905111252 26 355 0.0 1.6 0.00 0.00 0.00 68 1012.2
20260905110752 26 355 0.0 1.6 0.00 0.00 0.00 68 1012.2
20260905110252 26 355 0.0 1.6 0.00 0.00 0.00 69 1012.2
20260905110230 26 355 0.0 1.6 0.00 0.00 0.00 69 1012.2
20260905105752 26 355 0.0 1.6 0.00 0.00 0.00 70 1012.1
20260905105252 26 355 0.0 0.0 0.00 0.00 0.00 70 1012.1
20260905104752 26 355 0.0 0.0 0.00 0.00 0.00 69 1012.2
20260905104252 26 355 0.0 0.0 0.00 0.00 0.00 69 1012.2
20260905104230 26 355 0.0 0.0 0.00 0.00 0.00 69 1012.2
20260905103752 26 355 0.0 0.0 0.00 0.00 0.00 70 1012.2
20260905103252 26 355 0.0 0.0 0.00 0.00 0.00 70 1012.2
20260905103231 26 355 0.0 0.0 0.00 0.00 0.00 70 1012.3
20260905102752 26 355 0.0 0.0 0.00 0.00 0.00 70 1012.3
20260905102230 26 355 0.0 0.0 0.00 0.00 0.00 71 1012.4
20260905101752 26 355 0.0 0.0 0.00 0.00 0.00 71 1012.3
20260905101252 26 355 0.0 0.0 0.00 0.00 0.00 72 1012.3
20260905101230 26 355 0.0 0.0 0.00 0.00 0.00 72 1012.4
20260905100752 26 355 0.0 0.0 0.00 0.00 0.00 72 1012.3
20260905100252 26 355 0.0 0.0 0.00 0.00 0.00 72 1012.3
20260905095752 26 355 0.0 0.0 0.00 0.00 0.00 72 1012.3
20260905095253 26 355 0.0 0.0 0.00 0.00 0.00 72 1012.2
20260905094753 26 355 0.0 0.0 0.00 0.00 0.00 72 1012.2
20260905094230 26 355 0.0 0.0 0.00 0.00 0.00 72 1012.2
20260905093753 26 355 0.0 0.0 0.00 0.00 0.00 72 1012.2
20260905093230 26 355 0.0 0.0 0.00 0.00 0.00 72 1012.2
20260905092753 26 355 0.0 0.0 0.00 0.00 0.00 72 1012.1
20260905092229 26 355 0.0 0.0 0.00 0.00 0.00 71 1012.1
20260905091753 26 355 0.0 0.0 0.00 0.00 0.00 71 1012.1